Simultaneous Nadir Overpasses (SNOs) Predictions

Prediction of SNOs between GOES-17 and AQUA Satellite Orbit:

Table of predicted SNOs for the next 14.0 days since TLE Epoch: 9/3/2022
Index Date Time (GOES-17) GOES-17 Lat,Lon AQUA Lat,Lon Distance(km) Time Diff (sec)
1 09/03/2022 10:37:47 0.08,-137.32 -0.44,-134.79 287.24 80
2 09/03/2022 22:59:04 -0.07,-137.31 -0.63,-139.95 300.46 80
3 09/05/2022 22:49:03 -0.07,-137.30 0.04,-136.87 49.84 80
4 09/07/2022 22:36:21 -0.06,-137.29 0.66,-133.77 399.63 80
5 09/08/2022 10:54:49 0.05,-137.30 0.42,-138.89 182.00 80
6 09/10/2022 10:44:48 0.05,-137.29 -0.27,-135.81 167.85 80
7 09/10/2022 23:03:24 -0.05,-137.27 -0.84,-140.97 420.08 80
8 09/12/2022 22:50:42 -0.05,-137.26 -0.20,-137.87 70.31 80
9 09/14/2022 22:40:40 -0.05,-137.24 0.45,-134.78 279.06 80
10 09/15/2022 10:59:08 0.04,-137.25 0.63,-139.90 302.87 80
